Home   Weather   Middleburg   Past weeks
Flag for USA

Past Weather in Middleburg, Florida, USA — Yesterday and Last 2 Weeks

Now
73 °F

Low clouds.


Feels Like: 68 °F
Forecast: 87 / 72 °F
Wind: 3 mph from South

Location: Cecil Field Airport

Current Time: Jun 18, 2019 at 4:55:59 am

Latest Report: Jun 18, 2019 at 4:35 am


Visibility: 7 mi

Pressure: 30.01 "Hg

Humidity: 100%

Dew Point: 73 °F

Location of MiddleburgLocation

Past Weather in Middleburg — Graph

°F

Middleburg Temperature Yesterday

Maximum temperature yesterday: 93 °F (at 12:50 pm)
Minimum temperature yesterday: 68 °F (at 3:55 am)
Average temperature yesterday: 76 °F

High & Low Weather Summary for the Past Weeks

 TemperatureHumidityPressure
High100 °F (Jun 3, 3:50 pm)100% (Jun 3, 4:35 am)30.17 "Hg (Jun 3, 4:35 am)
Low64 °F (Jun 14, 11:35 pm)22% (Jun 3, 4:50 pm)29.81 "Hg (Jun 7, 4:50 pm)
Average77 °F83%29.98 "Hg
* Reported Jun 3 3:15 am — Jun 18 3:35 am, Middleburg. Weather by CustomWeather, © 2019

Note: Actual official high and low records may vary slightly from our data, if they occured in-between our weather recording intervals... More about our weather records

Advertising

Middleburg Weather History for the Previous 24 Hours

Scroll right to see more
 ConditionsComfort  
Time TempWeatherWind HumidityBarometerVisibility
3:35 am
Tue, Jun 18
72 °FFog.No wind94%30.01 "Hg3 mi
3:15 am72 °FFog.No wind100%30.01 "Hg1 mi
2:55 am72 °FFog.No wind94%30.02 "Hg2 mi
2:35 am72 °FFog.No wind94%30.03 "Hg2 mi
2:15 am73 °FFog.No wind94%30.03 "Hg6 mi
1:55 am73 °FClear.No wind94%30.03 "Hg8 mi
1:35 am73 °FFog.No wind94%30.03 "Hg6 mi
1:15 am75 °FClear.No wind94%30.03 "Hg10 mi
12:55 am75 °FClear.No wind94%30.04 "Hg10 mi
12:35 am75 °FClear.No wind94%30.04 "Hg10 mi
12:15 am73 °FClear.No wind94%30.05 "Hg10 mi
11:55 pm
Mon, Jun 17
73 °FClear.No wind94%30.05 "Hg10 mi
11:35 pm75 °FClear.No wind94%30.06 "Hg10 mi
11:15 pm77 °FClear.No wind89%30.05 "Hg10 mi
10:50 pm77 °FClear.5 mph89%30.05 "Hg10 mi
9:50 pm77 °FOvercast.5 mph83%30.04 "Hg10 mi
8:50 pm79 °FClear.5 mph79%30.03 "Hg10 mi
7:50 pm81 °FSunny.5 mph74%30.04 "Hg10 mi
6:50 pm82 °FPassing clouds.6 mph66%30.04 "Hg10 mi
5:50 pm82 °FScattered clouds.15 mph70%30.05 "Hg10 mi
4:50 pm82 °FScattered clouds.14 mph70%30.04 "Hg10 mi
3:50 pm88 °FScattered clouds.12 mph62%30.04 "Hg10 mi
2:50 pm86 °FPartly sunny.5 mph66%30.05 "Hg10 mi
1:50 pm79 °FPartly sunny.3 mph89%30.07 "Hg10 mi
12:50 pm93 °FPartly sunny.5 mph49%30.07 "Hg10 mi
11:50 am90 °FPartly sunny.9 mph55%30.09 "Hg10 mi
10:50 am90 °FPartly sunny.6 mph55%30.08 "Hg10 mi
9:50 am86 °FScattered clouds.9 mph62%30.09 "Hg10 mi
8:50 am82 °FSunny.5 mph74%30.08 "Hg10 mi
7:50 am77 °FSunny.No wind89%30.06 "Hg10 mi
6:50 am68 °FSunny.No wind94%30.05 "Hg10 mi
6:35 am68 °FFog.No wind94%30.05 "Hg1 mi
6:15 am68 °FClear.No wind94%30.05 "Hg8 mi
5:55 am68 °FFog.No wind94%30.04 "Hg4 mi
5:35 am68 °FFog.No wind94%30.04 "Hg0 mi
5:15 am68 °FClear.No wind94%30.04 "Hg9 mi
4:55 am70 °FFog.No wind94%30.04 "Hg5 mi
4:35 am70 °FFog.No wind94%30.04 "Hg4 mi
4:15 am70 °FFog.No wind94%30.03 "Hg1 mi
Weather by CustomWeather, © 2019

See weather overview